QPF
0.00 0.00 0.00 0.00 0.00 0.00 0.00 0.00 0.00 0.00 0.00 0.00 0.00 0.00 0.00 0.00 0.00 0.00 0.00 0.00 0.00 0.00 0.00 0.00 0.01 0.01 0.01 0.01 0.01 0.01 0.01 0.02 0.03 0.03 0.02 0.01 0.01 0.01 0.02 0.02 0.02 0.02 0.02 0.02 0.03 0.04 0.02 0.02 0.02
0.00 0.00 0.00 0.00 0.00 0.00 0.00 0.00 0.00 0.00 0.00 0.00 0.00 0.00 0.00 0.00 0.00 0.00 0.00 0.00 0.00 0.00 0.00 0.00 0.01 0.01 0.01 0.01 0.01 0.01 0.01 0.01 0.02 0.03 0.02 0.01 0.01 0.01 0.02 0.02 0.02 0.01 0.02 0.02 0.03 0.03 0.02 0.02 0.01
0.00 0.00 0.00 0.00 0.00 0.00 0.00 0.00 0.00 0.00 0.00 0.00 0.00 0.00 0.00 0.00 0.00 0.00 0.00 0.00 0.00 0.00 0.00 0.00 0.01 0.01 0.01 0.02 0.02 0.01 0.01 0.01 0.01 0.02 0.03 0.03 0.02 0.01 0.01 0.01 0.01 0.01 0.01 0.01 0.02 0.02 0.02 0.02 0.02
0.00 0.01 0.00 0.00 0.00 0.00 0.00 0.00 0.00 0.00 0.00 0.00 0.00 0.00 0.00 0.00 0.00 0.00 0.00 0.00 0.00 0.00 0.00 0.00 0.01 0.01 0.01 0.01 0.01 0.01 0.01 0.01 0.01 0.02 0.02 0.02 0.03 0.02 0.01 0.01 0.01 0.01 0.01 0.01 0.01 0.02 0.02 0.02 0.02
0.00 0.00 0.00 0.00 0.00 0.00 0.00 0.00 0.00 0.00 0.00 0.00 0.00 0.00 0.00 0.00 0.00 0.00 0.00 0.00 0.00 0.00 0.00 0.00 0.00 0.01 0.01 0.01 0.01 0.01 0.01 0.01 0.01 0.02 0.02 0.02 0.03 0.03 0.02 0.01 0.01 0.01 0.01 0.01 0.01 0.01 0.01 0.02 0.02
0.00 0.00 0.00 0.00 0.00 0.00 0.00 0.00 0.00 0.00 0.00 0.00 0.00 0.00 0.00 0.00 0.00 0.00 0.00 0.00 0.00 0.00 0.00 0.00 0.00 0.01 0.01 0.01 0.00 0.01 0.01 0.02 0.02 0.02 0.02 0.03 0.03 0.04 0.04 0.02 0.01 0.01 0.01 0.01 0.01 0.01 0.01 0.01 0.01
0.00 0.00 0.00 0.00 0.00 0.00 0.00 0.00 0.00 0.00 0.00 0.00 0.00 0.00 0.00 0.00 0.00 0.00 0.00 0.00 0.00 0.00 0.00 0.00 0.00 0.01 0.01 0.01 0.01 0.00 0.01 0.01 0.01 0.02 0.02 0.03 0.03 0.03 0.04 0.03 0.02 0.01 0.01 0.01 0.01 0.01 0.01 0.01 0.01
0.00 0.00 0.00 0.00 0.00 0.00 0.00 0.00 0.00 0.00 0.00 0.00 0.00 0.00 0.00 0.00 0.00 0.00 0.00 0.00 0.00 0.00 0.00 0.00 0.00 0.00 0.01 0.01 0.01 0.00 0.00 0.00 0.01 0.01 0.01 0.02 0.03 0.03 0.03 0.02 0.02 0.01 0.01 0.02 0.01 0.01 0.02 0.01 0.02
0.00 0.00 0.00 0.00 0.00 0.00 0.00 0.00 0.00 0.00 0.00 0.00 0.00 0.00 0.00 0.00 0.00 0.00 0.00 0.00 0.00 0.00 0.00 0.00 0.00 0.00 0.00 0.01 0.00 0.00 0.00 0.00 0.00 0.01 0.01 0.01 0.02 0.02 0.02 0.02 0.02 0.01 0.02 0.02 0.01 0.01 0.01 0.02 0.02
0.00 0.00 0.00 0.00 0.00 0.00 0.00 0.00 0.00 0.00 0.00 0.00 0.00 0.00 0.00 0.00 0.00 0.00 0.00 0.00 0.00 0.00 0.00 0.00 0.00 0.00 0.00 0.01 0.00 0.00 0.00 0.00 0.00 0.00 0.00 0.01 0.01 0.02 0.02 0.02 0.02 0.02 0.02 0.02 0.02 0.02 0.02 0.02 0.02
0.00 0.00 0.00 0.00 0.00 0.00 0.00 0.00 0.00 0.00 0.00 0.00 0.00 0.00 0.00 0.00 0.00 0.00 0.00 0.00 0.00 0.00 0.00 0.01 0.02 0.02 0.02 0.02 0.01 0.01 0.01 0.01 0.01 0.00 0.00 0.00 0.01 0.01 0.02 0.03 0.03 0.02 0.02 0.02 0.02 0.02 0.02 0.02 0.02
0.00 0.00 0.00 0.00 0.00 0.00 0.00 0.00 0.00 0.00 0.00 0.00 0.00 0.00 0.00 0.00 0.00 0.00 0.00 0.00 0.00 0.00 0.00 0.01 0.01 0.02 0.03 0.04 0.03 0.01 0.01 0.01 0.01 0.01 0.01 0.01 0.01 0.01 0.01 0.02 0.02 0.03 0.02 0.02 0.02 0.02 0.02 0.02 0.02
0.00 0.00 0.00 0.00 0.00 0.00 0.00 0.00 0.00 0.00 0.00 0.00 0.00 0.00 0.00 0.00 0.00 0.00 0.00 0.00 0.00 0.00 0.00 0.00 0.00 0.00 0.01 0.02 0.03 0.04 0.02 0.01 0.01 0.01 0.01 0.00 0.00 0.00 0.01 0.01 0.01 0.01 0.01 0.01 0.01 0.01 0.02 0.02 0.02
0.00 0.00 0.00 0.00 0.00 0.00 0.00 0.00 0.00 0.00 0.00 0.00 0.00 0.00 0.00 0.00 0.00 0.00 0.00 0.00 0.00 0.00 0.00 0.00 0.00 0.00 0.00 0.01 0.01 0.03 0.05 0.04 0.02 0.01 0.01 0.01 0.00 0.00 0.00 0.00 0.01 0.01 0.01 0.01 0.02 0.02 0.02 0.02 0.02
0.00 0.00 0.00 0.00 0.00 0.00 0.00 0.00 0.00 0.00 0.00 0.00 0.00 0.00 0.00 0.00 0.00 0.00 0.00 0.00 0.00 0.00 0.00 0.00 0.00 0.00 0.00 0.00 0.00 0.00 0.02 0.04 0.04 0.01 0.01 0.01 0.01 0.01 0.00 0.00 0.00 0.01 0.01 0.01 0.01 0.02 0.02 0.02 0.02
0.01 0.01 0.00 0.00 0.00 0.00 0.00 0.00 0.00 0.00 0.00 0.00 0.00 0.00 0.00 0.00 0.00 0.00 0.00 0.00 0.00 0.00 0.00 0.00 0.00 0.00 0.00 0.00 0.00 0.00 0.00 0.00 0.01 0.01 0.01 0.01 0.01 0.01 0.01 0.01 0.01 0.00 0.01 0.01 0.02 0.02 0.02 0.02 0.02
0.01 0.01 0.00 0.00 0.00 0.00 0.00 0.00 0.00 0.00 0.00 0.00 0.00 0.00 0.00 0.00 0.00 0.00 0.00 0.00 0.00 0.00 0.00 0.00 0.00 0.00 0.00 0.00 0.00 0.00 0.00 0.00 0.01 0.01 0.01 0.01 0.01 0.01 0.01 0.01 0.01 0.01 0.01 0.02 0.02 0.02 0.02 0.02 0.02
0.01 0.01 0.00 0.00 0.00 0.00 0.00 0.00 0.00 0.00 0.00 0.00 0.00 0.00 0.00 0.00 0.00 0.00 0.00 0.00 0.00 0.00 0.00 0.00 0.00 0.00 0.00 0.00 0.00 0.00 0.00 0.00 0.00 0.01 0.01 0.01 0.01 0.02 0.02 0.02 0.02 0.01 0.01 0.01 0.01 0.02 0.02 0.02 0.02
0.01 0.01 0.00 0.00 0.00 0.00 0.00 0.00 0.00 0.00 0.00 0.00 0.00 0.00 0.00 0.00 0.00 0.00 0.00 0.00 0.00 0.00 0.00 0.00 0.00 0.00 0.00 0.00 0.00 0.00 0.00 0.00 0.00 0.00 0.01 0.01 0.02 0.01 0.02 0.02 0.01 0.01 0.01 0.00 0.00 0.00 0.01 0.01 0.02
0.01 0.01 0.00 0.00 0.00 0.00 0.01 0.00 0.00 0.00 0.00 0.00 0.00 0.00 0.00 0.00 0.00 0.00 0.00 0.00 0.00 0.00 0.00 0.00 0.00 0.00 0.00 0.00 0.00 0.00 0.00 0.00 0.00 0.00 0.01 0.01 0.02 0.01 0.01 0.01 0.00 0.00 0.01 0.01 0.00 0.00 0.00 0.01 0.02
0.01 0.00 0.00 0.00 0.00 0.00 0.01 0.01 0.00 0.00 0.00 0.00 0.00 0.00 0.00 0.00 0.00 0.00 0.00 0.00 0.00 0.00 0.00 0.00 0.00 0.00 0.00 0.00 0.00 0.00 0.00 0.00 0.00 0.01 0.01 0.01 0.01 0.01 0.01 0.01 0.01 0.01 0.01 0.01 0.01 0.00 0.00 0.01 0.02
0.01 0.00 0.00 0.00 0.00 0.01 0.01 0.01 0.00 0.00 0.00 0.00 0.00 0.00 0.00 0.00 0.00 0.00 0.00 0.00 0.00 0.00 0.00 0.00 0.00 0.00 0.00 0.00 0.00 0.00 0.00 0.00 0.00 0.01 0.01 0.01 0.01 0.01 0.01 0.02 0.01 0.01 0.01 0.01 0.01 0.01 0.01 0.01 0.02
0.01 0.00 0.00 0.00 0.01 0.02 0.01 0.01 0.00 0.00 0.00 0.00 0.00 0.00 0.00 0.00 0.00 0.00 0.00 0.00 0.00 0.00 0.00 0.00 0.00 0.00 0.00 0.00 0.00 0.00 0.00 0.00 0.00 0.01 0.01 0.01 0.02 0.02 0.01 0.01 0.01 0.01 0.01 0.01 0.01 0.01 0.01 0.01 0.02
0.01 0.01 0.01 0.02 0.03 0.03 0.01 0.01 0.00 0.00 0.00 0.00 0.00 0.00 0.00 0.00 0.00 0.00 0.00 0.00 0.00 0.00 0.00 0.00 0.00 0.00 0.00 0.00 0.00 0.00 0.00 0.00 0.01 0.01 0.01 0.01 0.02 0.02 0.01 0.01 0.01 0.01 0.01 0.00 0.00 0.00 0.01 0.01 0.02
0.02 0.03 0.04 0.04 0.04 0.02 0.00 0.00 0.00 0.00 0.00 0.00 0.00 0.00 0.00 0.00 0.00 0.00 0.00 0.00 0.00 0.00 0.00 0.00 0.00 0.00 0.00 0.00 0.00 0.00 0.00 0.01 0.01 0.01 0.02 0.03 0.02 0.02 0.01 0.01 0.01 0.01 0.01 0.01 0.00 0.00 0.00 0.00 0.01
0.01 0.02 0.02 0.02 0.01 0.00 0.00 0.00 0.00 0.00 0.00 0.00 0.00 0.00 0.00 0.00 0.00 0.00 0.00 0.00 0.00 0.00 0.00 0.00 0.00 0.00 0.00 0.00 0.00 0.00 0.00 0.01 0.01 0.02 0.02 0.02 0.03 0.02 0.01 0.01 0.01 0.01 0.02 0.02 0.01 0.01 0.01 0.00 0.00
0.02 0.01 0.01 0.02 0.02 0.01 0.00 0.00 0.00 0.00 0.00 0.00 0.00 0.00 0.00 0.00 0.00 0.00 0.00 0.00 0.00 0.00 0.00 0.00 0.00 0.00 0.00 0.00 0.00 0.00 0.00 0.01 0.01 0.02 0.02 0.01 0.01 0.01 0.01 0.01 0.01 0.01 0.02 0.02 0.02 0.01 0.01 0.01 0.01
0.03 0.02 0.02 0.03 0.03 0.01 0.00 0.00 0.00 0.00 0.00 0.00 0.00 0.00 0.00 0.00 0.00 0.00 0.00 0.00 0.00 0.00 0.00 0.00 0.00 0.00 0.00 0.00 0.00 0.00 0.00 0.00 0.01 0.01 0.02 0.01 0.01 0.01 0.01 0.01 0.01 0.01 0.01 0.02 0.02 0.02 0.01 0.01 0.01
0.03 0.03 0.03 0.03 0.02 0.01 0.01 0.00 0.00 0.00 0.00 0.00 0.00 0.00 0.00 0.00 0.00 0.00 0.00 0.00 0.00 0.00 0.00 0.00 0.00 0.00 0.00 0.00 0.00 0.00 0.00 0.00 0.01 0.01 0.02 0.02 0.02 0.02 0.02 0.01 0.01 0.01 0.01 0.01 0.02 0.02 0.02 0.02 0.02
0.01 0.02 0.02 0.03 0.02 0.01 0.01 0.00 0.00 0.00 0.00 0.00 0.00 0.00 0.00 0.00 0.00 0.00 0.00 0.00 0.00 0.00 0.00 0.00 0.00 0.00 0.00 0.00 0.00 0.00 0.00 0.00 0.01 0.00 0.01 0.02 0.03 0.03 0.02 0.02 0.01 0.01 0.01 0.01 0.01 0.02 0.02 0.02 0.02
MSLP
1011.98 1012.21 1012.46 1012.66 1012.75 1012.70 1012.50 1012.17 1011.75 1011.30 1010.86 1010.46 1010.11 1009.80 1009.51 1009.22 1008.93 1008.64 1008.40 1008.23 1008.19 1008.31 1008.58 1009.00 1009.51 1010.06 1010.59 1011.05 1011.43 1011.71 1011.93 1012.12 1012.32 1012.55 1012.82 1013.11 1013.40 1013.66 1013.88 1014.04 1014.15 1014.23 1014.30 1014.41 1014.54 1014.72 1014.91 1015.11 1015.27
1012.19 1012.45 1012.70 1012.88 1012.93 1012.82 1012.54 1012.13 1011.62 1011.08 1010.54 1010.06 1009.63 1009.26 1008.93 1008.62 1008.33 1008.07 1007.88 1007.77 1007.81 1008.00 1008.36 1008.85 1009.44 1010.05 1010.64 1011.15 1011.57 1011.90 1012.15 1012.36 1012.57 1012.80 1013.05 1013.31 1013.57 1013.80 1013.98 1014.12 1014.22 1014.29 1014.38 1014.49 1014.64 1014.82 1015.02 1015.21 1015.36
1012.42 1012.69 1012.93 1013.07 1013.06 1012.89 1012.53 1012.04 1011.45 1010.82 1010.21 1009.66 1009.17 1008.76 1008.40 1008.08 1007.80 1007.57 1007.42 1007.38 1007.47 1007.73 1008.15 1008.71 1009.35 1010.02 1010.65 1011.21 1011.67 1012.03 1012.32 1012.56 1012.78 1013.01 1013.24 1013.48 1013.71 1013.90 1014.06 1014.17 1014.26 1014.34 1014.44 1014.57 1014.73 1014.92 1015.12 1015.29 1015.42
1012.60 1012.87 1013.08 1013.18 1013.11 1012.87 1012.45 1011.89 1011.24 1010.57 1009.91 1009.32 1008.80 1008.36 1007.99 1007.67 1007.42 1007.22 1007.11 1007.12 1007.27 1007.58 1008.04 1008.63 1009.29 1009.98 1010.63 1011.22 1011.70 1012.10 1012.42 1012.68 1012.92 1013.16 1013.39 1013.61 1013.81 1013.98 1014.12 1014.22 1014.31 1014.40 1014.51 1014.66 1014.83 1015.02 1015.21 1015.36 1015.46
1012.68 1012.93 1013.11 1013.16 1013.05 1012.76 1012.30 1011.71 1011.04 1010.34 1009.68 1009.08 1008.56 1008.13 1007.77 1007.48 1007.25 1007.09 1007.03 1007.08 1007.26 1007.59 1008.06 1008.64 1009.30 1009.97 1010.61 1011.18 1011.68 1012.09 1012.43 1012.72 1012.98 1013.23 1013.47 1013.69 1013.88 1014.04 1014.17 1014.28 1014.37 1014.48 1014.61 1014.77 1014.95 1015.13 1015.30 1015.42 1015.49
1012.63 1012.85 1012.99 1013.01 1012.86 1012.55 1012.09 1011.50 1010.85 1010.18 1009.55 1008.98 1008.50 1008.10 1007.77 1007.51 1007.32 1007.20 1007.17 1007.24 1007.44 1007.77 1008.21 1008.76 1009.36 1009.98 1010.58 1011.12 1011.59 1011.99 1012.34 1012.66 1012.94 1013.22 1013.48 1013.71 1013.92 1014.09 1014.23 1014.35 1014.45 1014.57 1014.71 1014.88 1015.05 1015.22 1015.36 1015.44 1015.47
1012.48 1012.66 1012.76 1012.74 1012.58 1012.28 1011.84 1011.30 1010.71 1010.10 1009.54 1009.03 1008.59 1008.24 1007.95 1007.73 1007.58 1007.49 1007.48 1007.56 1007.76 1008.06 1008.46 1008.95 1009.48 1010.02 1010.54 1011.01 1011.44 1011.82 1012.18 1012.50 1012.82 1013.13 1013.42 1013.69 1013.92 1014.12 1014.27 1014.41 1014.53 1014.66 1014.80 1014.96 1015.12 1015.26 1015.36 1015.40 1015.38
1012.25 1012.39 1012.45 1012.41 1012.25 1011.97 1011.58 1011.11 1010.60 1010.09 1009.60 1009.16 1008.79 1008.49 1008.24 1008.05 1007.92 1007.85 1007.85 1007.94 1008.11 1008.38 1008.73 1009.14 1009.58 1010.03 1010.46 1010.87 1011.24 1011.59 1011.94 1012.28 1012.62 1012.97 1013.30 1013.61 1013.88 1014.10 1014.28 1014.43 1014.57 1014.70 1014.84 1014.98 1015.12 1015.22 1015.28 1015.28 1015.22
1012.02 1012.10 1012.12 1012.06 1011.90 1011.65 1011.33 1010.94 1010.52 1010.09 1009.69 1009.33 1009.02 1008.75 1008.53 1008.36 1008.24 1008.17 1008.17 1008.24 1008.39 1008.62 1008.91 1009.25 1009.61 1009.98 1010.33 1010.67 1010.99 1011.31 1011.65 1012.00 1012.37 1012.75 1013.13 1013.47 1013.78 1014.04 1014.24 1014.41 1014.55 1014.68 1014.81 1014.93 1015.04 1015.11 1015.13 1015.10 1015.01
1011.83 1011.84 1011.81 1011.71 1011.56 1011.34 1011.06 1010.75 1010.41 1010.07 1009.75 1009.44 1009.17 1008.93 1008.73 1008.55 1008.42 1008.34 1008.32 1008.38 1008.50 1008.69 1008.94 1009.22 1009.53 1009.83 1010.13 1010.41 1010.70 1011.00 1011.33 1011.69 1012.09 1012.50 1012.90 1013.29 1013.62 1013.90 1014.13 1014.30 1014.45 1014.57 1014.69 1014.80 1014.88 1014.93 1014.93 1014.88 1014.77
1011.68 1011.62 1011.53 1011.40 1011.23 1011.02 1010.78 1010.52 1010.24 1009.97 1009.70 1009.44 1009.19 1008.96 1008.75 1008.56 1008.40 1008.30 1008.25 1008.28 1008.38 1008.54 1008.77 1009.02 1009.30 1009.57 1009.83 1010.10 1010.37 1010.66 1010.99 1011.36 1011.77 1012.21 1012.64 1013.05 1013.41 1013.70 1013.94 1014.12 1014.27 1014.39 1014.50 1014.60 1014.68 1014.73 1014.72 1014.66 1014.55
1011.57 1011.45 1011.29 1011.10 1010.90 1010.68 1010.45 1010.22 1009.98 1009.74 1009.50 1009.26 1009.03 1008.79 1008.56 1008.34 1008.16 1008.02 1007.94 1007.94 1008.02 1008.18 1008.39 1008.64 1008.92 1009.19 1009.46 1009.73 1010.01 1010.31 1010.65 1011.03 1011.45 1011.90 1012.34 1012.76 1013.13 1013.44 1013.69 1013.88 1014.03 1014.16 1014.27 1014.38 1014.47 1014.52 1014.53 1014.49 1014.39
1011.46 1011.27 1011.05 1010.81 1010.56 1010.31 1010.06 1009.82 1009.59 1009.36 1009.14 1008.91 1008.67 1008.43 1008.18 1007.93 1007.71 1007.54 1007.43 1007.41 1007.47 1007.62 1007.84 1008.12 1008.42 1008.73 1009.03 1009.33 1009.64 1009.96 1010.31 1010.70 1011.13 1011.57 1012.02 1012.44 1012.82 1013.13 1013.39 1013.58 1013.75 1013.89 1014.03 1014.15 1014.27 1014.36 1014.40 1014.38 1014.32
1011.33 1011.08 1010.80 1010.50 1010.19 1009.89 1009.61 1009.34 1009.08 1008.85 1008.61 1008.38 1008.14 1007.89 1007.63 1007.37 1007.12 1006.92 1006.79 1006.74 1006.80 1006.95 1007.19 1007.49 1007.84 1008.20 1008.56 1008.91 1009.26 1009.61 1009.98 1010.37 1010.80 1011.24 1011.68 1012.10 1012.47 1012.79 1013.06 1013.28 1013.46 1013.63 1013.79 1013.96 1014.11 1014.24 1014.33 1014.36 1014.32
1011.15 1010.86 1010.52 1010.17 1009.82 1009.46 1009.12 1008.80 1008.50 1008.23 1007.97 1007.73 1007.48 1007.23 1006.97 1006.70 1006.45 1006.24 1006.09 1006.02 1006.07 1006.22 1006.48 1006.82 1007.22 1007.64 1008.06 1008.47 1008.87 1009.25 1009.64 1010.05 1010.46 1010.90 1011.33 1011.74 1012.11 1012.45 1012.73 1012.97 1013.19 1013.39 1013.59 1013.79 1013.99 1014.17 1014.30 1014.38 1014.38
1010.91 1010.60 1010.25 1009.86 1009.46 1009.05 1008.64 1008.25 1007.88 1007.55 1007.25 1006.98 1006.73 1006.48 1006.23 1005.98 1005.73 1005.52 1005.37 1005.30 1005.34 1005.49 1005.77 1006.14 1006.58 1007.05 1007.54 1008.01 1008.45 1008.88 1009.29 1009.70 1010.12 1010.54 1010.96 1011.37 1011.76 1012.10 1012.41 1012.69 1012.94 1013.18 1013.42 1013.67 1013.91 1014.13 1014.31 1014.42 1014.46
1010.64 1010.34 1010.00 1009.61 1009.18 1008.71 1008.22 1007.74 1007.28 1006.86 1006.49 1006.17 1005.90 1005.65 1005.42 1005.19 1004.97 1004.78 1004.63 1004.57 1004.60 1004.76 1005.04 1005.43 1005.91 1006.44 1006.97 1007.50 1007.99 1008.46 1008.89 1009.31 1009.73 1010.15 1010.57 1010.99 1011.39 1011.77 1012.12 1012.43 1012.72 1013.01 1013.29 1013.57 1013.84 1014.09 1014.31 1014.46 1014.52
1010.36 1010.11 1009.81 1009.44 1008.99 1008.47 1007.89 1007.29 1006.70 1006.16 1005.68 1005.29 1004.97 1004.72 1004.50 1004.31 1004.13 1003.97 1003.85 1003.80 1003.85 1004.01 1004.30 1004.70 1005.20 1005.76 1006.34 1006.92 1007.46 1007.96 1008.42 1008.86 1009.29 1009.72 1010.16 1010.60 1011.03 1011.45 1011.84 1012.20 1012.54 1012.86 1013.17 1013.48 1013.77 1014.05 1014.29 1014.46 1014.55
1010.08 1009.92 1009.69 1009.36 1008.91 1008.33 1007.64 1006.90 1006.14 1005.43 1004.81 1004.31 1003.92 1003.64 1003.44 1003.29 1003.16 1003.06 1002.98 1002.96 1003.02 1003.20 1003.49 1003.90 1004.42 1005.01 1005.63 1006.24 1006.82 1007.36 1007.86 1008.32 1008.78 1009.23 1009.70 1010.18 1010.65 1011.12 1011.57 1011.99 1012.38 1012.74 1013.07 1013.40 1013.71 1013.99 1014.24 1014.44 1014.55
1009.79 1009.74 1009.61 1009.33 1008.88 1008.24 1007.43 1006.52 1005.56 1004.65 1003.85 1003.20 1002.72 1002.40 1002.20 1002.09 1002.03 1001.99 1001.98 1002.02 1002.11 1002.31 1002.61 1003.03 1003.56 1004.17 1004.81 1005.46 1006.08 1006.65 1007.19 1007.69 1008.19 1008.69 1009.20 1009.73 1010.27 1010.81 1011.32 1011.80 1012.24 1012.63 1013.00 1013.33 1013.65 1013.94 1014.19 1014.40 1014.55
1009.44 1009.53 1009.50 1009.29 1008.84 1008.13 1007.18 1006.08 1004.90 1003.76 1002.75 1001.94 1001.35 1000.98 1000.78 1000.72 1000.73 1000.79 1000.86 1000.97 1001.12 1001.34 1001.67 1002.10 1002.64 1003.25 1003.92 1004.59 1005.24 1005.86 1006.44 1007.00 1007.54 1008.10 1008.67 1009.27 1009.89 1010.50 1011.09 1011.64 1012.13 1012.56 1012.95 1013.30 1013.61 1013.90 1014.17 1014.39 1014.56
1008.99 1009.21 1009.29 1009.14 1008.67 1007.89 1006.80 1005.51 1004.11 1002.75 1001.54 1000.56 999.86 999.44 999.25 999.24 999.34 999.50 999.67 999.87 1000.08 1000.35 1000.70 1001.15 1001.69 1002.32 1002.99 1003.69 1004.38 1005.04 1005.67 1006.28 1006.89 1007.51 1008.16 1008.84 1009.54 1010.23 1010.90 1011.51 1012.06 1012.54 1012.95 1013.30 1013.62 1013.91 1014.18 1014.42 1014.62
1008.37 1008.71 1008.89 1008.78 1008.30 1007.45 1006.24 1004.77 1003.18 1001.62 1000.23 999.12 998.33 997.87 997.71 997.77 997.97 998.24 998.53 998.81 999.11 999.43 999.81 1000.26 1000.81 1001.43 1002.12 1002.83 1003.55 1004.25 1004.93 1005.60 1006.28 1006.98 1007.70 1008.47 1009.25 1010.03 1010.77 1011.46 1012.06 1012.58 1013.01 1013.37 1013.69 1013.98 1014.26 1014.51 1014.74
1007.59 1008.01 1008.25 1008.16 1007.68 1006.76 1005.46 1003.86 1002.14 1000.44 998.93 997.72 996.89 996.44 996.32 996.45 996.76 997.14 997.54 997.92 998.28 998.65 999.06 999.52 1000.07 1000.69 1001.38 1002.10 1002.84 1003.58 1004.32 1005.05 1005.79 1006.57 1007.37 1008.21 1009.08 1009.93 1010.75 1011.49 1012.14 1012.69 1013.14 1013.52 1013.83 1014.12 1014.39 1014.66 1014.90
1006.65 1007.11 1007.36 1007.29 1006.79 1005.85 1004.49 1002.84 1001.05 999.29 997.74 996.51 995.68 995.26 995.21 995.43 995.83 996.31 996.81 997.27 997.70 998.10 998.53 999.00 999.54 1000.15 1000.84 1001.58 1002.34 1003.12 1003.90 1004.69 1005.50 1006.34 1007.21 1008.12 1009.05 1009.97 1010.84 1011.63 1012.32 1012.89 1013.36 1013.73 1014.04 1014.32 1014.59 1014.85 1015.10
1005.62 1006.06 1006.30 1006.21 1005.71 1004.77 1003.42 1001.79 1000.01 998.28 996.76 995.59 994.82 994.47 994.49 994.79 995.28 995.84 996.41 996.93 997.39 997.82 998.26 998.73 999.26 999.87 1000.56 1001.31 1002.09 1002.91 1003.73 1004.58 1005.44 1006.33 1007.26 1008.23 1009.20 1010.16 1011.07 1011.89 1012.60 1013.18 1013.65 1014.01 1014.31 1014.57 1014.82 1015.07 1015.32
1004.59 1004.95 1005.14 1005.03 1004.53 1003.63 1002.35 1000.80 999.12 997.50 996.10 995.02 994.36 994.09 994.19 994.57 995.11 995.72 996.33 996.87 997.36 997.80 998.23 998.70 999.23 999.84 1000.54 1001.30 1002.12 1002.97 1003.84 1004.72 1005.63 1006.57 1007.53 1008.53 1009.53 1010.51 1011.43 1012.26 1012.97 1013.55 1014.00 1014.35 1014.62 1014.85 1015.07 1015.30 1015.53
1003.64 1003.88 1003.99 1003.84 1003.37 1002.53 1001.36 999.96 998.45 997.00 995.76 994.84 994.29 994.12 994.29 994.70 995.27 995.89 996.50 997.05 997.53 997.97 998.40 998.87 999.41 1000.04 1000.76 1001.55 1002.40 1003.29 1004.20 1005.12 1006.06 1007.02 1008.00 1009.01 1010.01 1010.98 1011.90 1012.72 1013.41 1013.98 1014.40 1014.72 1014.96 1015.16 1015.34 1015.53 1015.73
1002.85 1002.94 1002.95 1002.77 1002.32 1001.57 1000.54 999.32 998.02 996.78 995.74 994.97 994.54 994.46 994.66 995.09 995.64 996.24 996.82 997.34 997.81 998.25 998.69 999.18 999.75 1000.42 1001.18 1002.01 1002.91 1003.83 1004.78 1005.73 1006.68 1007.65 1008.63 1009.62 1010.61 1011.56 1012.45 1013.24 1013.91 1014.44 1014.84 1015.12 1015.32 1015.47 1015.61 1015.75 1015.91
1002.25 1002.19 1002.10 1001.88 1001.46 1000.80 999.93 998.91 997.82 996.79 995.93 995.32 994.99 994.96 995.17 995.57 996.08 996.63 997.17 997.66 998.12 998.56 999.04 999.57 1000.19 1000.92 1001.74 1002.63 1003.57 1004.54 1005.51 1006.47 1007.44 1008.40 1009.36 1010.32 1011.26 1012.18 1013.03 1013.79 1014.42 1014.92 1015.29 1015.54 1015.69 1015.80 1015.89 1015.99 1016.10
Thickness
5722 5726 5730 5728 5723 5722 5729 5738 5742 5742 5745 5752 5755 5757 5758 5756 5754 5747 5756 5763 5763 5762 5759 5756 5754 5753 5752 5752 5751 5750 5749 5749 5748 5748 5747 5747 5746 5745 5744 5744 5743 5742 5742 5741 5740 5739 5739 5738 5737
5720 5723 5723 5721 5717 5717 5727 5737 5737 5742 5745 5747 5749 5752 5752 5751 5755 5754 5756 5757 5759 5758 5756 5753 5750 5749 5749 5748 5747 5747 5746 5745 5745 5744 5744 5743 5742 5742 5741 5740 5740 5739 5738 5738 5737 5736 5735 5734 5733
5716 5719 5716 5715 5715 5723 5728 5734 5737 5739 5742 5742 5744 5747 5748 5747 5750 5752 5754 5754 5755 5754 5752 5749 5746 5746 5745 5744 5744 5743 5742 5742 5741 5741 5740 5739 5739 5738 5737 5737 5736 5735 5734 5733 5733 5732 5731 5730 5730
5712 5711 5710 5709 5713 5722 5726 5731 5732 5732 5735 5738 5741 5739 5742 5744 5747 5749 5750 5751 5751 5750 5748 5745 5742 5742 5741 5740 5740 5739 5738 5738 5737 5737 5736 5736 5735 5734 5733 5732 5732 5731 5730 5729 5729 5728 5727 5727 5726
5707 5706 5701 5703 5711 5718 5723 5725 5726 5728 5731 5734 5736 5735 5735 5740 5743 5745 5745 5747 5747 5746 5744 5741 5738 5737 5737 5736 5736 5735 5734 5734 5733 5733 5732 5732 5731 5730 5729 5728 5728 5727 5726 5725 5724 5724 5723 5722 5722
5697 5700 5698 5703 5709 5713 5718 5721 5722 5725 5727 5729 5731 5731 5732 5736 5737 5738 5741 5741 5742 5741 5739 5737 5733 5733 5732 5732 5731 5731 5730 5729 5729 5728 5728 5727 5727 5726 5725 5724 5723 5722 5722 5721 5720 5719 5719 5718 5717
5692 5692 5697 5703 5704 5706 5712 5717 5719 5721 5722 5725 5729 5727 5728 5731 5731 5733 5735 5736 5736 5735 5734 5733 5731 5729 5728 5727 5727 5726 5726 5725 5724 5724 5723 5722 5722 5721 5721 5720 5719 5718 5717 5716 5715 5715 5714 5713 5713
5690 5689 5690 5695 5698 5703 5709 5710 5713 5715 5719 5723 5724 5723 5723 5726 5726 5727 5728 5728 5728 5728 5728 5728 5727 5726 5725 5724 5722 5721 5721 5720 5720 5719 5718 5717 5717 5717 5716 5715 5714 5713 5712 5711 5710 5710 5709 5709 5708
5682 5679 5687 5692 5694 5700 5702 5703 5705 5709 5712 5714 5717 5720 5720 5720 5720 5720 5720 5720 5720 5721 5722 5723 5723 5722 5721 5720 5718 5717 5716 5715 5715 5714 5713 5713 5714 5713 5712 5711 5709 5708 5707 5706 5706 5705 5705 5704 5704
5673 5675 5687 5691 5694 5695 5695 5697 5699 5702 5704 5707 5709 5711 5713 5713 5713 5714 5716 5716 5716 5716 5717 5718 5718 5717 5716 5715 5714 5714 5713 5712 5712 5712 5711 5710 5710 5709 5707 5705 5704 5703 5702 5701 5701 5700 5700 5700 5700
5670 5675 5681 5682 5685 5687 5688 5690 5694 5696 5698 5706 5707 5707 5707 5707 5709 5711 5713 5715 5714 5714 5712 5713 5713 5712 5711 5711 5710 5710 5709 5708 5708 5707 5706 5705 5704 5703 5702 5701 5700 5699 5698 5698 5697 5696 5696 5696 5695
5664 5669 5672 5675 5675 5677 5680 5684 5687 5691 5698 5704 5705 5704 5703 5703 5705 5707 5709 5711 5710 5709 5708 5708 5707 5707 5706 5706 5706 5705 5704 5703 5703 5702 5701 5700 5699 5698 5698 5697 5696 5695 5694 5693 5692 5691 5691 5690 5690
5656 5661 5663 5666 5667 5670 5673 5676 5680 5687 5693 5696 5697 5697 5698 5700 5702 5704 5706 5706 5706 5705 5704 5703 5703 5702 5701 5700 5700 5699 5698 5698 5697 5695 5695 5694 5693 5693 5692 5691 5689 5689 5688 5687 5686 5686 5685 5684 5684
5653 5654 5656 5659 5662 5665 5666 5672 5674 5686 5689 5689 5690 5692 5695 5696 5697 5699 5699 5700 5701 5701 5700 5700 5699 5698 5696 5696 5695 5694 5693 5691 5690 5689 5688 5687 5687 5686 5685 5684 5683 5682 5681 5680 5679 5679 5678 5678 5677
5643 5643 5649 5654 5656 5659 5658 5665 5675 5683 5682 5683 5686 5689 5689 5692 5693 5694 5696 5696 5697 5697 5697 5695 5694 5693 5692 5691 5690 5689 5687 5686 5684 5683 5681 5680 5680 5679 5678 5677 5676 5675 5673 5673 5672 5671 5670 5670 5669
5632 5636 5642 5651 5651 5652 5650 5667 5678 5678 5676 5679 5682 5685 5685 5687 5689 5691 5692 5692 5692 5692 5691 5690 5688 5688 5687 5685 5684 5683 5681 5680 5678 5677 5675 5674 5673 5671 5670 5669 5668 5667 5666 5665 5664 5663 5662 5662 5661
5624 5633 5641 5643 5645 5646 5647 5662 5671 5670 5670 5674 5678 5681 5682 5683 5685 5686 5686 5687 5687 5687 5686 5684 5683 5683 5681 5679 5678 5676 5674 5673 5672 5670 5668 5667 5665 5663 5662 5661 5660 5658 5657 5656 5655 5654 5654 5652 5651
5627 5631 5633 5637 5639 5638 5642 5655 5663 5665 5665 5670 5674 5676 5677 5678 5680 5681 5681 5681 5681 5681 5681 5680 5678 5677 5675 5672 5670 5668 5666 5665 5663 5662 5660 5659 5657 5655 5654 5653 5651 5649 5648 5647 5646 5645 5643 5642 5641
5623 5623 5627 5630 5629 5629 5638 5648 5657 5661 5661 5664 5668 5671 5672 5673 5675 5675 5674 5675 5675 5674 5674 5673 5672 5671 5668 5666 5664 5661 5659 5657 5655 5653 5652 5650 5649 5647 5645 5644 5642 5640 5639 5637 5636 5635 5633 5631 5629
5609 5612 5617 5618 5617 5620 5629 5640 5653 5656 5657 5661 5663 5665 5667 5667 5667 5667 5667 5668 5668 5669 5669 5667 5666 5664 5662 5660 5658 5656 5652 5649 5647 5644 5642 5641 5640 5638 5636 5634 5633 5631 5629 5627 5626 5623 5621 5619 5617
5599 5606 5610 5609 5609 5611 5616 5637 5649 5653 5652 5652 5655 5658 5660 5661 5661 5662 5661 5662 5662 5662 5662 5661 5659 5657 5654 5652 5649 5646 5643 5640 5638 5636 5634 5632 5630 5628 5626 5625 5623 5621 5619 5618 5616 5613 5611 5609 5606
5593 5599 5598 5597 5598 5605 5607 5622 5648 5648 5646 5647 5650 5652 5654 5654 5655 5655 5655 5655 5655 5655 5653 5652 5651 5649 5646 5644 5642 5640 5638 5635 5632 5628 5624 5622 5620 5618 5616 5615 5613 5611 5609 5608 5605 5603 5600 5598 5596
5588 5588 5588 5588 5589 5591 5599 5600 5640 5639 5641 5646 5647 5648 5648 5648 5648 5648 5648 5648 5647 5645 5644 5643 5642 5640 5638 5636 5634 5632 5630 5626 5622 5618 5615 5612 5610 5608 5606 5605 5603 5601 5599 5597 5595 5592 5590 5587 5585
5575 5574 5574 5575 5576 5580 5602 5599 5628 5638 5641 5643 5642 5642 5640 5641 5640 5640 5640 5639 5637 5636 5634 5633 5633 5631 5629 5627 5625 5623 5620 5616 5612 5609 5606 5603 5600 5598 5596 5594 5593 5591 5589 5586 5584 5581 5579 5576 5574
5566 5566 5565 5565 5567 5587 5598 5597 5621 5635 5634 5635 5635 5635 5634 5633 5633 5633 5633 5631 5629 5627 5625 5624 5623 5621 5619 5617 5615 5613 5610 5607 5604 5600 5597 5594 5591 5588 5586 5584 5582 5580 5578 5575 5573 5570 5567 5565 5563
5565 5569 5573 5576 5584 5592 5583 5594 5620 5624 5624 5625 5626 5626 5625 5626 5626 5626 5625 5624 5622 5619 5617 5616 5614 5611 5609 5607 5605 5603 5599 5596 5594 5590 5588 5585 5582 5579 5576 5573 5571 5569 5567 5564 5561 5559 5556 5554 5551
5555 5559 5570 5569 5568 5576 5589 5596 5608 5615 5614 5615 5617 5617 5617 5618 5618 5617 5616 5615 5613 5611 5608 5606 5604 5601 5599 5597 5594 5591 5589 5585 5582 5579 5577 5574 5571 5568 5565 5562 5560 5558 5555 5552 5549 5547 5545 5542 5539
5552 5556 5551 5553 5558 5572 5587 5592 5607 5611 5610 5609 5609 5610 5610 5609 5609 5608 5607 5605 5603 5600 5597 5595 5594 5591 5588 5586 5583 5580 5577 5574 5571 5568 5566 5563 5560 5556 5554 5551 5548 5546 5544 5541 5538 5535 5533 5530 5527
5536 5539 5548 5553 5557 5568 5579 5594 5604 5605 5605 5603 5603 5602 5601 5601 5600 5599 5597 5595 5592 5589 5586 5584 5582 5580 5577 5574 5571 5568 5565 5562 5559 5557 5555 5551 5548 5545 5542 5539 5537 5535 5532 5529 5527 5524 5521 5518 5516
5536 5541 5544 5545 5545 5553 5569 5582 5590 5591 5592 5592 5593 5591 5591 5590 5589 5588 5586 5584 5581 5578 5576 5573 5571 5568 5565 5562 5559 5556 5553 5550 5548 5545 5542 5539 5536 5533 5530 5527 5525 5523 5520 5518 5515 5512 5509 5507 5505